Tracking 28565 objects as of 3-Mar-2024
HD Live streaming from Space Station
objects crossing your sky now

EXPLORER 47 (IMP-7)

Track EXPLORER 47 (IMP-7) now!
EXPLORER 47 (IMP-7) is classified as:


NORAD ID: 6197
Int'l Code: 1972-073A
Perigee: 151,461.1 km
Apogee: 293,703.9 km
Inclination: 22.6 °
Period: 18,171.1 minutes
Semi major axis: 228953 km
RCS: Unknown
Launch date: September 23, 1972
Source: United States (US)
Launch site: AIR FORCE EASTERN TEST RANGE (AFETR)
Your satellite tracking list
Your tracking list is empty




NASA's NSSDC Master Catalog

Two Line Element Set (TLE):
1 06197U 72073A   24066.84620733 -.00000974  00000-0  00000-0 0  9994
2 06197  22.5633  93.8878 3106370 137.1054 357.5462  0.07924685  3253
Source of the keplerian elements: AFSPC